Location: Blackwater Beach
(38.5801°N, 75.1577°W)
Time: 02:56:46
(UTC+00:00)

Cosmos 2297 Rocket - Pass Details

Date: 17 May 2026
Orbit: 838 x 842 km, 71.0° (Epoch: 9 June)

Event Time Altitude Azimuth Distance (km) Brightness Sun altitude
Exits shadow 05:59:29 13° 290° (WNW) 2,277 4.4 -30.3°
Maximum altitude 06:01:13 14° 310° (NW) 2,173 4.5 -30.2°
Drops below altitude 10° 06:04:08 10° 342° (NNW) 2,461 5.2 -30.0°
Sets 06:07:54 0° 7° (N) 3,400 6.5 -29.7°
